STARLINK-1108 (44944 NORAD) Tracking and Keplerian Element Data

This shows tracking and keplerian element data for the satellite.

Feedback or suggestion? Click here.




ElementValue
Catalog44944
NameSTARLINK-1108
Epoch Orbit721
Epoch Day52.78628498
Epoch Year2020
RAAN169.548
Inclination52.9971
Eccentricity0.0002112
Argument of Perigee28.5172
Mean Anonmoly331.596
Mean Motion15.73196881
Decay Rate3.068E-05
L11 44944U 20001AG 20052.78628498 .00003068 00000-0 26276-4 0 9993
L22 44944 52.9971 169.5480 0002112 28.5172 331.5960 15.73196881 7210

Live tracking and technical data element details for STARLINK-1108 (NORAD 44944). STARLINK-1108 can be tracked NOW for your location showing map with azimuth and elevation plus other details from your city location.

Track the satellite on the map from your city or location and see movement details for azimuth, elevation, latitude, longitude, range, height, and movement on the map or in text.







IsCatalogInMostPopularTable: catalog: 44944, numindb: 15
Update: records affected: 1



GetName: 44944 STARLINK-1108

Hit Count: updated at: Mon, 24 Feb 2020 17:24:37 GMT